Regional Weather Roundup
Issued by NWS Kansas City/Pleasant Hill, MO

Home | Current Version | Previous Version | Graphics & Text | Print | Product List | Glossary Off
Versions: 1 2 3 4 5 6 7 8 9 10 11 12 13 14 15 16 17 18 19 20 21 22 23 24 25 26 27

000
ASUS43 KEAX 302010
RWREAX

WEATHER ROUNDUP FOR EASTERN KANSAS AND NORTHWEST MISSOURI
NATIONAL WEATHER SERVICE KANSAS CITY/PLEASANT HILL MO
300 PM CDT FRI SEP 30 2016

KSZ040-057-103>105-MOZ028-029-037-043-302100-
...KANSAS CITY METROPOLITAN AREA...

CITY           SKY/WX    TMP DP  RH WIND       PRES   REMARKS
K.C. INTL      MOSUNNY   74  46  36 N14G22    30.15F
K.C. DOWNTOWN  SUNNY     76  45  33 N8        30.14F
LEES SUMMIT    SUNNY     73  46  38 NE10      30.15F
OLATHE - IXD   SUNNY     72  51  47 N8        30.16F
OLATHE - OJC   SUNNY     72  49  44 N9        30.15F
LAWRENCE       SUNNY     75  52  44 NW9       30.16F

$$

MOZ001>008-011>017-020>025-030>033-038>040-044>046-053-054-302100-
...NORTHERN AND CENTRAL MISSOURI...

CITY           SKY/WX    TMP DP  RH WIND       PRES   REMARKS
ST. JOSEPH     SUNNY     75  48  38 N12       30.16F
MOSBY          CLEAR     73  45  35 N9        30.14S
WHITEMAN AFB   MOSUNNY   74  47  37 N16       30.11F
CLINTON        SUNNY     73  50  43 N10G16    30.13F
SEDALIA        SUNNY     77  46  33 N10G18    30.13F
WARSAW         NOT AVBL
CHILLICOTHE      N/A     72  54  53 N6        30.16F
KIRKSVILLE     CLOUDY    64  54  69 N9        30.16F

$$

MOZ041-047>049-056>058-063>065-088>090-097-302100-
...EASTERN AND SOUTHERN MISSOURI...

CITY           SKY/WX    TMP DP  RH WIND       PRES   REMARKS
ST. LOUIS INTL NOT AVBL
SPIRIT OF STL  CLOUDY    65  59  81 W10       30.07F
COLUMBIA       CLOUDY    67  54  63 N13       30.12F
JEFFERSON CITY CLOUDY    68  55  63 N6        30.11F
ROLLA          CLOUDY    65  56  72 N6        30.10F
OSAGE BEACH    CLOUDY    71  54  54 N7        30.12F
SPRINGFIELD    PTSUNNY   71  52  50 N13       30.13F
BRANSON        PTSUNNY   72  52  49 N10       30.13F
JOPLIN         MOSUNNY   72  53  51 N9        30.15F
WEST PLAINS    CLOUDY    70  55  59 N8        30.12F

$$

IAZ060-094-KSZ022-034>040-054-083-096-NEZ052-066-093-302100-
...KANSAS...SOUTHEAST NEBRASKA AND IOWA...

CITY           SKY/WX    TMP DP  RH WIND       PRES   REMARKS
TOPEKA         SUNNY     74  52  46 NW5       30.16F
MANHATTAN      SUNNY     74  50  42 VRB6      30.17F
EMPORIA        SUNNY     74  48  39 NE8       30.17F
CHANUTE        SUNNY     76  51  41 N7        30.15F
WICHITA        MOSUNNY   73  46  38 VRB5      30.16F
OMAHA          MOSUNNY   75  45  34 NE8       30.18F
LINCOLN        SUNNY     75  47  36 NE8       30.20F
FALLS CITY     SUNNY     74  48  39 NE8G16    30.16F
LAMONI         CLOUDY    64  54  69 N13       30.18F
DES MOINES     CLOUDY    64  54  69 N7        30.20F

$$





USA.gov is the U.S. government's official web portal to all federal, state and local government web resources and services.